W1FL Weather Reports


time (UTC)temp
F
wind
direction
speed
knots
gust
knots
rain 1hr
in
rain 24hr
in
rain mn
in
humidity
%
barometer
mb
20260509131541 52 241 0.9 5.2 0.00 0.00 0.00 58 1012.6
20260509130036 49 190 1.7 4.3 0.00 0.00 0.00 59 1012.8
20260509124531 47 192 0.0 3.5 0.00 0.00 0.00 69 1013.0
20260509123027 45 178 1.7 3.5 0.00 0.00 0.00 72 1013.2
20260509121523 43 142 0.9 3.5 0.00 0.00 0.00 75 1013.3
20260509120018 40 169 0.9 4.3 0.00 0.00 0.00 78 1013.4
20260509114513 38 149 0.9 2.6 0.00 0.00 0.00 83 1013.4
20260509113009 37 94 0.9 2.6 0.00 0.00 0.00 86 1013.5
20260509111504 35 185 0.0 0.9 0.00 0.00 0.00 90 1013.5
20260509110003 33 215 0.0 1.7 0.00 0.00 0.00 90 1013.5
20260509104502 32 326 0.0 0.0 0.00 0.00 0.00 92 1013.6
20260509103109 31 259 0.0 0.0 0.00 0.00 0.00 94 1013.4
20260509101627 29 259 0.0 0.9 0.00 0.00 0.00 93 1013.3
20260509094601 29 255 0.0 1.7 0.00 0.00 0.00 93 1013.0
20260509093058 28 252 0.0 0.0 0.00 0.00 0.00 93 1012.8
20260509091556 29 251 0.0 0.9 0.00 0.00 0.00 92 1012.7
20260509090058 29 252 0.9 2.6 0.00 0.00 0.00 93 1012.7
20260509084558 29 253 0.0 0.0 0.00 0.00 0.00 92 1012.6
20260509083101 29 253 0.0 0.9 0.00 0.00 0.00 92 1012.8
20260509081546 29 253 0.0 0.9 0.00 0.00 0.00 92 1012.8
20260509080049 29 253 0.0 0.9 0.00 0.00 0.00 92 1012.8
20260509074600 29 253 0.0 0.9 0.00 0.00 0.00 92 1012.8
20260509073058 30 253 0.0 0.9 0.00 0.00 0.00 91 1012.9
20260509071545 29 253 0.0 0.0 0.00 0.00 0.00 92 1012.7
20260509070041 29 253 0.0 0.0 0.00 0.00 0.00 91 1012.7
20260509064537 30 253 0.0 0.0 0.00 0.00 0.00 90 1012.8
20260509063048 30 253 0.0 0.0 0.00 0.00 0.00 90 1012.7
20260509061533 31 253 0.0 0.0 0.00 0.00 0.00 89 1012.7
20260509060030 31 253 0.0 0.0 0.00 0.00 0.00 90 1012.7
20260509054529 31 252 0.0 0.9 0.00 0.00 0.00 90 1012.8
20260509053037 31 252 0.0 0.9 0.00 0.00 0.00 89 1012.7
20260509051522 31 252 0.0 0.0 0.00 0.00 0.00 88 1012.4
20260509050020 32 252 0.9 1.7 0.00 0.00 0.00 89 1012.4
20260509044517 32 252 0.0 0.0 0.00 0.00 0.00 87 1012.5
20260509043035 32 252 0.0 0.0 0.00 0.00 0.00 86 1012.4
20260509041516 33 252 0.0 0.0 0.00 0.00 0.00 85 1012.4
20260509040010 33 252 0.0 0.0 0.00 0.00 0.00 83 1012.3
20260509034507 34 252 0.0 0.0 0.00 0.00 0.00 83 1012.2
20260509033007 34 252 0.0 0.0 0.00 0.00 0.00 82 1012.1
20260509031505 35 252 0.0 0.0 0.00 0.00 0.00 82 1012.0
20260509030005 36 252 0.0 0.0 0.00 0.00 0.00 81 1011.8
20260509024503 37 252 0.0 0.0 0.00 0.00 0.00 76 1011.7
20260509023002 37 252 0.0 0.0 0.00 0.00 0.00 78 1011.7
20260509021503 39 252 0.0 0.0 0.00 0.00 0.00 77 1011.7
20260509020112 39 252 0.0 0.0 0.00 0.00 0.00 71 1011.5
20260509014558 40 252 0.0 0.0 0.00 0.00 0.00 72 1011.3
20260509013100 41 252 0.0 0.0 0.00 0.00 0.00 69 1011.2
20260509011601 43 252 0.0 0.9 0.00 0.00 0.00 68 1011.0
20260509010059 43 252 0.0 0.0 0.00 0.00 0.00 63 1010.7
20260509004552 44 252 0.0 0.0 0.00 0.00 0.00 66 1010.5
20260509003056 45 252 0.0 0.0 0.00 0.00 0.00 63 1010.3
20260509001549 46 252 0.0 0.0 0.00 0.00 0.00 59 1010.2
20260509000048 47 252 0.0 0.0 0.00 0.00 0.00 58 1010.1
20260508234547 48 252 0.0 0.0 0.00 0.00 0.00 54 1010.1
20260508233048 49 252 0.0 0.0 0.00 0.00 0.00 59 1010.0
20260508231549 49 252 0.0 1.7 0.00 0.00 0.00 51 1009.9
20260508230046 49 252 0.0 1.7 0.00 0.00 0.00 49 1009.8
20260508224552 50 310 0.9 3.5 0.00 0.00 0.00 45 1009.8
20260508223044 51 312 0.0 3.5 0.00 0.00 0.00 41 1009.8
20260508221543 50 338 0.9 4.3 0.00 0.00 0.00 43 1009.8
20260508220047 50 217 0.9 4.3 0.00 0.00 0.00 45 1009.8
20260508214545 49 201 0.9 7.0 0.00 0.00 0.00 44 1009.8
20260508213041 50 308 3.5 10.4 0.00 0.00 0.00 43 1009.6
20260508211540 50 236 4.3 11.3 0.00 0.00 0.00 45 1009.6
20260508210040 50 234 0.9 7.0 0.00 0.00 0.00 45 1009.5
20260508204539 50 328 2.6 8.7 0.00 0.00 0.00 46 1009.5
20260508203040 50 229 2.6 8.7 0.00 0.00 0.00 45 1009.5
20260508201537 51 306 3.5 10.4 0.00 0.00 0.00 44 1009.3
20260508200035 51 211 2.6 7.8 0.00 0.00 0.00 47 1009.5
20260508194532 50 170 1.7 7.0 0.00 0.00 0.00 47 1009.4
20260508193030 49 236 1.7 7.0 0.00 0.00 0.00 47 1009.5
20260508191532 49 321 3.5 8.7 0.00 0.00 0.00 47 1009.4
20260508190029 49 242 6.1 11.3 0.00 0.00 0.00 48 1009.4
20260508184527 49 257 2.6 7.8 0.00 0.00 0.00 47 1009.4
20260508183027 49 182 4.3 9.6 0.00 0.00 0.00 50 1009.4
20260508181535 48 229 5.2 11.3 0.00 0.00 0.00 49 1009.7
20260508180024 47 263 2.6 8.7 0.00 0.00 0.00 51 1009.8
20260508174522 47 289 1.7 6.1 0.00 0.00 0.00 49 1009.7
20260508173022 47 273 2.6 7.8 0.00 0.00 0.00 48 1009.6
20260508171525 47 261 3.5 7.0 0.00 0.00 0.00 50 1009.5
20260508170021 47 268 1.7 7.0 0.00 0.00 0.00 53 1009.5
20260508164521 46 266 1.7 7.0 0.00 0.00 0.00 55 1009.6
20260508163020 47 246 3.5 9.6 0.00 0.00 0.00 54 1009.6
20260508161532 48 332 3.5 7.0 0.00 0.00 0.00 49 1009.3
20260508160018 48 198 1.7 7.0 0.00 0.00 0.00 52 1009.2
20260508154521 47 250 5.2 10.4 0.00 0.00 0.00 55 1009.3
20260508153031 47 190 3.5 8.7 0.00 0.00 0.00 55 1009.3
20260508151513 47 302 5.2 9.6 0.00 0.00 0.00 57 1009.5
20260508150012 46 190 1.7 7.0 0.00 0.00 0.00 59 1009.4
20260508144510 45 236 1.7 7.0 0.00 0.00 0.00 62 1009.6
20260508143006 45 240 1.7 7.0 0.00 0.00 0.00 61 1009.6
20260508141506 44 192 1.7 7.8 0.00 0.00 0.00 65 1009.7
20260508140002 44 281 3.5 7.8 0.00 0.00 0.00 66 1009.7
20260508134558 44 243 2.6 9.6 0.00 0.00 0.00 68 1009.7
20260508133103 43 234 0.0 7.0 0.00 0.00 0.00 69 1009.6